S55G-5 Weather Reports


Display with metric or nautical units.
time (UTC)temp
F
wind
direction
speed
MPH
gust
MPH
rain 1hr
in
rain 24hr
in
rain mn
in
humidity
%
barometer
mb
20260906071803 80 95 8.0 14.0 0.00 0.00 0.00 49 1033.4
20260906070903 80 94 4.0 11.0 0.00 0.00 0.00 50 1033.6
20260906070217 80 109 6.0 11.0 0.00 0.00 0.00 50 1033.5
20260906065403 79 89 6.0 13.0 0.00 0.00 0.00 51 1033.7
20260906064503 79 92 5.0 13.0 0.00 0.00 0.00 51 1033.3
20260906063603 79 89 4.0 13.0 0.00 0.00 0.00 51 1033.4
20260906062703 78 93 5.0 14.0 0.00 0.00 0.00 52 1033.5
20260906061803 78 81 6.0 13.0 0.00 0.00 0.00 52 1033.3
20260906060903 78 78 7.0 13.0 0.00 0.00 0.00 52 1033.2
20260906060003 77 79 4.0 11.0 0.00 0.00 0.00 55 1033.4
20260906055403 77 77 4.0 13.0 0.00 0.00 0.00 54 1033.2
20260906054503 76 83 4.0 13.0 0.00 0.00 0.00 55 1033.0
20260906053603 76 93 4.0 8.0 0.00 0.00 0.00 56 1032.8
20260906052703 76 83 4.0 8.0 0.00 0.00 0.00 57 1032.9
20260906051803 76 84 3.0 8.0 0.00 0.00 0.00 57 1032.9
20260906051117 75 95 3.0 9.0 0.00 0.00 0.00 58 1032.9
20260906050003 75 84 4.0 13.0 0.00 0.00 0.00 58 1032.7
20260906045403 74 86 4.0 9.0 0.00 0.00 0.00 59 1032.7
20260906044503 75 91 5.0 9.0 0.00 0.00 0.00 58 1032.4
20260906043603 75 82 4.0 8.0 0.00 0.00 0.00 59 1032.6
20260906042703 74 85 4.0 9.0 0.00 0.00 0.00 60 1032.6
20260906041803 75 71 4.0 11.0 0.00 0.00 0.00 60 1032.6
20260906040903 75 78 4.0 9.0 0.00 0.00 0.00 60 1032.3
20260906040003 75 103 4.0 8.0 0.00 0.00 0.00 59 1032.3
20260906035403 75 95 4.0 8.0 0.00 0.00 0.00 59 1032.2
20260906034717 75 98 4.0 8.0 0.00 0.00 0.00 60 1032.2
20260906033603 75 93 3.0 11.0 0.00 0.00 0.00 60 1032.1
20260906032703 75 101 5.0 11.0 0.00 0.00 0.00 59 1032.0
20260906031803 76 100 4.0 11.0 0.00 0.00 0.00 59 1032.0
20260906030903 75 96 4.0 11.0 0.00 0.00 0.00 59 1032.0
20260906030003 76 96 4.0 11.0 0.00 0.00 0.00 58 1031.8
20260906025617 76 92 5.0 11.0 0.00 0.00 0.00 58 1032.0
20260906024503 77 103 4.0 11.0 0.00 0.00 0.00 56 1031.8
20260906023603 76 94 4.0 13.0 0.00 0.00 0.00 57 1031.9
20260906022703 77 104 4.0 13.0 0.00 0.00 0.00 56 1031.8
20260906021803 77 90 5.0 11.0 0.00 0.00 0.00 56 1031.7
20260906020903 76 78 2.0 9.0 0.00 0.00 0.00 57 1031.9
20260906020003 76 95 2.0 7.0 0.00 0.00 0.00 58 1031.9
20260906015403 76 94 2.0 6.0 0.00 0.00 0.00 58 1031.9
20260906014718 76 89 3.0 6.0 0.00 0.00 0.00 57 1031.9
20260906013603 75 80 3.0 7.0 0.00 0.00 0.00 59 1031.8
20260906012703 75 80 2.0 8.0 0.00 0.00 0.00 61 1031.8
20260906011803 74 86 2.0 4.0 0.00 0.00 0.00 63 1031.8
20260906010903 75 86 2.0 4.0 0.00 0.00 0.00 61 1031.8
20260906010003 76 93 2.0 6.0 0.00 0.00 0.00 58 1031.7
20260906005403 75 82 2.0 4.0 0.00 0.00 0.00 61 1031.7
20260906004503 75 103 2.0 4.0 0.00 0.00 0.00 62 1031.8
20260906003604 76 89 2.0 7.0 0.00 0.00 0.00 57 1031.6
20260906002703 76 92 2.0 4.0 0.00 0.00 0.00 58 1031.6
20260906002018 75 91 2.0 6.0 0.00 0.00 0.00 60 1031.6
20260906000903 76 90 1.0 4.0 0.00 0.00 0.00 61 1032.0
20260906000003 76 90 2.0 7.0 0.00 0.00 0.00 59 1031.6
20260905235403 77 100 2.0 7.0 0.00 0.00 0.00 59 1031.8
20260905234503 77 72 2.0 6.0 0.00 0.00 0.00 58 1031.6
20260905233603 77 81 3.0 6.0 0.00 0.00 0.00 58 1031.4
20260905232918 77 90 3.0 4.0 0.00 0.00 0.00 59 1031.4
20260905232017 77 82 2.0 4.0 0.00 0.00 0.00 59 1031.4
20260905230903 78 85 2.0 9.0 0.00 0.00 0.00 57 1031.3
20260905230003 78 101 3.0 8.0 0.00 0.00 0.00 57 1031.2
20260905225403 77 96 2.0 6.0 0.00 0.00 0.00 58 1031.0
20260905224503 77 86 2.0 6.0 0.00 0.00 0.00 59 1031.3
20260905223603 76 82 2.0 4.0 0.00 0.00 0.00 61 1031.1
20260905222918 76 78 2.0 4.0 0.00 0.00 0.00 61 1031.0
20260905221803 76 71 2.0 4.0 0.00 0.00 0.00 61 1031.2
20260905220903 76 83 2.0 6.0 0.00 0.00 0.00 61 1031.1
20260905220003 76 74 2.0 6.0 0.00 0.00 0.00 61 1031.1
20260905215403 76 83 2.0 6.0 0.00 0.00 0.00 61 1031.1
20260905214503 75 88 3.0 6.0 0.00 0.00 0.00 64 1031.2
20260905213603 75 59 2.0 4.0 0.00 0.00 0.00 63 1031.0
20260905212703 76 79 1.0 4.0 0.00 0.00 0.00 63 1030.9
20260905211803 76 85 2.0 4.0 0.00 0.00 0.00 63 1031.0
20260905210903 76 83 2.0 4.0 0.00 0.00 0.00 63 1031.0
20260905210003 77 75 2.0 2.0 0.00 0.00 0.00 61 1030.8
20260905205403 76 76 1.0 2.0 0.00 0.00 0.00 61 1031.0
20260905204503 76 69 1.0 2.0 0.00 0.00 0.00 64 1030.8
20260905203603 76 91 1.0 4.0 0.00 0.00 0.00 62 1031.0
20260905202703 77 85 2.0 4.0 0.00 0.00 0.00 62 1030.7
20260905201803 76 31 2.0 6.0 0.00 0.00 0.00 63 1030.6
20260905201117 76 30 2.0 6.0 0.00 0.00 0.00 65 1030.6
20260905200003 77 28 2.0 4.0 0.00 0.00 0.00 63 1030.5
20260905195618 77 48 1.0 4.0 0.00 0.00 0.00 63 1030.4
20260905194718 77 73 1.0 4.0 0.00 0.00 0.00 64 1030.4
20260905193603 77 53 1.0 2.0 0.00 0.00 0.00 62 1030.2
20260905192703 78 66 1.0 4.0 0.00 0.00 0.00 61 1030.3
20260905191803 78 79 2.0 4.0 0.00 0.00 0.00 60 1030.1
20260905190903 79 100 1.0 4.0 0.00 0.00 0.00 59 1029.9
20260905190003 79 88 2.0 4.0 0.00 0.00 0.00 58 1029.9
20260905185403 79 78 1.0 4.0 0.00 0.00 0.00 57 1029.8
20260905184503 79 85 2.0 4.0 0.00 0.00 0.00 57 1029.5
20260905183603 80 88 2.0 4.0 0.00 0.00 0.00 56 1029.6
20260905182708 80 82 2.0 4.0 0.00 0.00 0.00 56 1029.5
20260905181803 80 94 2.0 4.0 0.00 0.00 0.00 55 1029.5
20260905180903 81 88 3.0 7.0 0.00 0.00 0.00 54 1029.6
20260905180003 81 90 3.0 8.0 0.00 0.00 0.00 54 1029.1
20260905175404 81 93 2.0 7.0 0.00 0.00 0.00 55 1029.3
20260905174503 82 94 3.0 8.0 0.00 0.00 0.00 54 1029.3
20260905173603 82 99 3.0 9.0 0.00 0.00 0.00 54 1028.7
20260905172703 82 109 4.0 9.0 0.00 0.00 0.00 54 1029.0
20260905171803 82 95 5.0 9.0 0.00 0.00 0.00 54 1028.5
20260905170903 83 114 3.0 11.0 0.00 0.00 0.00 54 1028.6
20260905170003 84 108 4.0 8.0 0.00 0.00 0.00 53 1028.8
20260905165403 84 102 2.0 4.0 0.00 0.00 0.00 54 1028.8
20260905164503 85 114 4.0 7.0 0.00 0.00 0.00 55 1028.7
20260905163603 88 225 0.0 4.0 0.00 0.00 0.00 50 1028.5
20260905162917 88 272 1.0 4.0 0.00 0.00 0.00 49 1028.2
20260905161803 89 278 2.0 4.0 0.00 0.00 0.00 47 1028.2
20260905160903 91 273 1.0 4.0 0.00 0.00 0.00 45 1028.0
20260905160003 91 255 1.0 2.0 0.00 0.00 0.00 46 1027.9
20260905155403 92 254 1.0 4.0 0.00 0.00 0.00 45 1028.1
20260905154503 91 260 1.0 4.0 0.00 0.00 0.00 46 1028.1
20260905153603 91 279 1.0 4.0 0.00 0.00 0.00 45 1028.2
20260905152703 91 268 2.0 6.0 0.00 0.00 0.00 45 1028.0
20260905152018 91 262 1.0 6.0 0.00 0.00 0.00 44 1028.1
20260905150903 91 262 3.0 7.0 0.00 0.00 0.00 46 1028.0
20260905150217 92 255 4.0 7.0 0.00 0.00 0.00 46 1027.9
20260905145403 92 254 2.0 4.0 0.00 0.00 0.00 48 1027.7
20260905144503 92 263 2.0 7.0 0.00 0.00 0.00 52 1027.8
20260905143603 92 265 3.0 7.0 0.00 0.00 0.00 51 1027.9
20260905142703 92 273 2.0 4.0 0.00 0.00 0.00 54 1027.7
20260905142018 92 279 3.0 4.0 0.00 0.00 0.00 54 1027.9
20260905140903 93 268 2.0 4.0 0.00 0.00 0.00 47 1027.9
20260905140004 94 252 2.0 4.0 0.00 0.00 0.00 47 1027.8
20260905135403 93 265 1.0 4.0 0.00 0.00 0.00 47 1027.8
20260905134503 93 219 1.0 4.0 0.00 0.00 0.00 47 1028.0
20260905133603 91 283 0.0 6.0 0.00 0.00 0.00 47 1027.8
20260905132703 91 273 4.0 6.0 0.00 0.00 0.00 46 1027.7
20260905131803 92 275 3.0 7.0 0.00 0.00 0.00 45 1027.9
20260905130903 93 234 2.0 4.0 0.00 0.00 0.00 45 1027.7
20260905130003 93 254 2.0 6.0 0.00 0.00 0.00 45 1027.8
20260905125403 91 273 2.0 6.0 0.00 0.00 0.00 45 1028.0
20260905124503 92 253 2.0 4.0 0.00 0.00 0.00 44 1028.2
20260905123603 92 279 1.0 6.0 0.00 0.00 0.00 42 1028.3
20260905122703 90 283 3.0 6.0 0.00 0.00 0.00 43 1028.4
20260905121803 92 93 1.0 4.0 0.00 0.00 0.00 44 1028.2
20260905120903 90 116 2.0 4.0 0.00 0.00 0.00 41 1028.3
20260905120003 91 329 2.0 4.0 0.00 0.00 0.00 40 1028.4
20260905115403 91 344 2.0 4.0 0.00 0.00 0.00 41 1028.4
20260905114503 89 83 1.0 4.0 0.00 0.00 0.00 43 1028.4
20260905113603 90 231 2.0 4.0 0.00 0.00 0.00 41 1028.3
20260905112917 92 275 1.0 4.0 0.00 0.00 0.00 41 1028.3
20260905111803 90 256 2.0 6.0 0.00 0.00 0.00 41 1028.5
20260905110903 90 7 3.0 4.0 0.00 0.00 0.00 42 1028.3
20260905110003 90 55 1.0 2.0 0.00 0.00 0.00 43 1028.4
20260905105403 88 5 1.0 4.0 0.00 0.00 0.00 42 1028.6
20260905104503 89 307 0.0 2.0 0.00 0.00 0.00 45 1028.3
20260905103603 87 23 1.0 2.0 0.00 0.00 0.00 46 1028.5
20260905102703 85 18 1.0 4.0 0.00 0.00 0.00 48 1028.3
20260905101803 85 18 2.0 4.0 0.00 0.00 0.00 48 1028.6
20260905100903 86 43 2.0 4.0 0.00 0.00 0.00 47 1028.7
20260905100217 87 354 2.0 4.0 0.00 0.00 0.00 46 1028.6
20260905095403 86 62 1.0 2.0 0.00 0.00 0.00 45 1028.7
20260905094503 86 80 1.0 2.0 0.00 0.00 0.00 46 1028.3
20260905093603 85 55 0.0 2.0 0.00 0.00 0.00 51 1028.6
20260905092916 84 39 1.0 2.0 0.00 0.00 0.00 55 1028.4
20260905091803 85 94 0.0 2.0 0.00 0.00 0.00 54 1028.6
20260905090903 84 39 2.0 4.0 0.00 0.00 0.00 55 1028.5
20260905090003 84 57 2.0 4.0 0.00 0.00 0.00 54 1028.3
20260905085403 85 57 2.0 2.0 0.00 0.00 0.00 53 1028.5
20260905084503 85 70 1.0 2.0 0.00 0.00 0.00 56 1028.3
20260905083603 84 89 1.0 4.0 0.00 0.00 0.00 58 1028.4
20260905082703 84 111 2.0 2.0 0.00 0.00 0.00 59 1028.4
20260905081803 83 131 0.0 4.0 0.00 0.00 0.00 59 1028.3
20260905080904 83 133 2.0 4.0 0.00 0.00 0.00 59 1028.1
20260905080003 82 105 2.0 4.0 0.00 0.00 0.00 60 1028.2
20260905075403 82 92 2.0 2.0 0.00 0.00 0.00 60 1028.1
20260905074503 81 67 1.0 2.0 0.00 0.00 0.00 61 1028.1
20260905073819 82 67 0.0 2.0 0.00 0.00 0.00 60 1027.8
20260905072703 78 26 1.0 2.0 0.00 0.00 0.00 64 1027.9